Jaipur, India

5:27 AM IST on November 21, 2017 (GMT +0530)
Jaipur

Weather History for VIJP - March, 2014

Change the Weather History Date:

Saturday, March 22, 2014

  Actual Average Record
Temperature  
Mean Temperature 82 °F -  
Max Temperature 93 °F - - ()
Min Temperature 70 °F - - ()
Cooling Degree Days 16    
Growing Degree Days 32 (Base 50)    
Moisture  
Dew Point 43 °F    
Average Humidity 23    
Maximum Humidity 43    
Minimum Humidity 7    
Precipitation  
Precipitation 0.00 in - - ()
Sea Level Pressure  
Sea Level Pressure 29.76 in    
Wind  
Wind Speed 6 mph ()    
Max Wind Speed 28 mph    
Max Gust Speed -    
Visibility 2.5 miles    
Events      
T = Trace of Precipitation, MM = Missing Value Source: Averaged Metar Reports

Daily Weather History Graph

Daily Weather History Graph

Search for Another Location

Airport or City:

Trip Planner

Search our weather history database for the weather conditions in past years. The results will help you decide how hot, cold, wet, or windy it might be!

Date:

Astronomy

Mar. 22, 2014 Rise Set
Actual Time 6:29 AM IST 6:38 PM IST
Civil Twilight 6:05 AM IST 7:02 PM IST
Nautical Twilight 5:38 AM IST 7:29 PM IST
Astronomical Twilight 5:11 AM IST 7:56 PM IST
Moon 12:04 AM IST (3/23) 10:13 AM IST (3/22)
Length of Visible Light 12h 56m
Length of Day
12h 09m
Waning Gibbous, 70% of the Moon is Illuminated
Mar 22
Waning Gibbous
Mar 24
Last Quarter
Mar 31
New
Apr 7
First Quarter
Apr 15
Full

Hourly Weather History & Observations

Time (IST) Temp. Dew Point Humidity Pressure Visibility Wind Dir Wind Speed Gust Speed Precip Events Conditions
2:30 AM 70 °F 45 °F 29% 29.67 in 1 mi NNW 2.3 mph - -   Haze
5:00 AM 73.4 °F 41.0 °F 31% 29.74 in 1.9 mi NW 5.8 mph - N/A   Haze
5:30 AM 72 °F 45 °F 27% 29.70 in 1 mi NW 4.6 mph - -   Haze
7:00 AM 71.6 °F 48.2 °F 43% 29.77 in 1.9 mi NW 4.6 mph - N/A   Haze
8:30 AM 74 °F 53 °F 37% 29.75 in 2 mi WNW 27.6 mph - -   Haze
9:00 AM 77.0 °F 51.8 °F 41% 29.83 in 2.5 mi NW 8.1 mph - N/A   Haze
10:00 AM 80.6 °F 50.0 °F 34% 29.83 in 2.5 mi Variable 8.1 mph - N/A   Haze
11:00 AM - - N/A% 29.83 in 3.1 mi Variable 8.1 mph - N/A   Haze
11:30 AM 85 °F 47 °F 17% 29.73 in 2 mi South 6.9 mph - -   Haze
12:00 PM 87.8 °F 41.0 °F 19% 29.83 in 3.1 mi NW 10.4 mph - N/A   Haze
1:00 PM 89.6 °F 39.2 °F 17% 29.80 in 3.7 mi Variable 6.9 mph - N/A   Unknown
2:30 PM 92 °F 36 °F 7% 29.68 in 2 mi SE 9.2 mph - -  
3:30 PM 91.4 °F 37.4 °F 15% 29.74 in 3.7 mi Variable 11.5 mph - N/A   Partly Cloudy
4:00 PM 91.4 °F 37.4 °F 15% 29.74 in 3.7 mi Variable 6.9 mph - N/A   Partly Cloudy
5:00 PM 91.4 °F 33.8 °F 13% 29.74 in 3.7 mi Variable 9.2 mph - N/A   Partly Cloudy
5:30 PM 90 °F 40 °F 10% 29.65 in 2 mi NW 6.9 mph - -   Scattered Clouds
6:00 PM 89.6 °F 35.6 °F 15% 29.74 in 3.7 mi Variable 6.9 mph - N/A   Partly Cloudy
8:00 PM 84.2 °F 39.2 °F 20% 29.80 in 2.5 mi Variable 3.5 mph - N/A   Haze
8:30 PM 82 °F 47 °F 19% 29.72 in 2 mi NNE 3.5 mph - -   Haze
9:00 PM 82.4 °F 41.0 °F 23% 29.80 in 2.5 mi Variable 3.5 mph - N/A   Haze
10:00 PM 80.6 °F 41.0 °F 24% 29.80 in 2.5 mi NE 5.8 mph - N/A   Haze
11:00 PM 77.0 °F 42.8 °F 29% 29.83 in 2.5 mi ENE 5.8 mph - N/A   Haze
11:30 PM 77 °F 47 °F 24% 29.75 in 2 mi 2.3 mph - -   Haze